GW3210 Weather Reports


time (UTC)temp
F
wind
direction
speed
knots
gust
knots
rain 1hr
in
rain 24hr
in
rain mn
in
humidity
%
barometer
mb
20260905184616 66 315 0.9 0.9 0.00 0.05 0.00 58 1019.1
20260905183616 66 0.0 0.9 0.00 0.05 0.00 58 1019.2
20260905182621 65 45 1.7 3.5 0.00 0.05 0.00 60 1019.4
20260905181616 65 270 1.7 2.6 0.00 0.05 0.00 63 1019.4
20260905180616 64 315 2.6 4.3 0.00 0.05 0.00 64 1019.4
20260905175616 63 0 1.7 2.6 0.00 0.05 0.00 65 1019.5
20260905174616 62 293 1.7 2.6 0.00 0.05 0.00 66 1019.4
20260905173615 60 270 1.7 2.6 0.00 0.05 0.00 69 1019.4
20260905172616 59 315 0.9 1.7 0.00 0.05 0.00 68 1019.4
20260905171615 59 315 0.9 1.7 0.00 0.05 0.00 70 1019.4
20260905170635 59 0 0.9 1.7 0.00 0.05 0.00 70 1019.3
20260905165616 58 293 0.9 0.9 0.00 0.05 0.00 70 1019.3
20260905164616 58 315 2.6 3.5 0.00 0.05 0.00 71 1019.3
20260905163616 57 0.0 0.9 0.00 0.05 0.00 71 1019.3
20260905162615 57 113 2.6 3.5 0.00 0.05 0.00 70 1019.2
20260905161615 57 270 0.9 2.6 0.00 0.05 0.00 72 1019.4
20260905160615 56 180 0.9 0.9 0.00 0.05 0.00 73 1019.3
20260905155616 56 180 0.9 0.9 0.00 0.05 0.00 77 1019.4
20260905154616 55 0.0 0.9 0.00 0.05 0.00 82 1019.3
20260905153655 54 0.0 0.9 0.00 0.05 0.00 82 1019.4
20260905152616 53 0.0 0.0 0.00 0.05 0.00 83 1019.3
20260905151616 53 158 0.9 0.9 0.00 0.05 0.00 83 1019.5
20260905150616 53 158 0.9 1.7 0.00 0.05 0.00 83 1019.3
20260905145615 52 158 0.9 1.7 0.00 0.05 0.00 83 1019.1
20260905144635 52 0.0 0.0 0.00 0.05 0.00 83 1019.1
20260905143615 52 0.0 0.0 0.00 0.05 0.00 84 1019.2
20260905142636 52 0.0 0.0 0.00 0.05 0.00 84 1019.2
20260905141615 52 0.0 0.0 0.00 0.05 0.00 83 1019.2
20260905140636 52 0.0 0.0 0.00 0.05 0.00 83 1019.2
20260905135615 52 0.0 0.9 0.00 0.06 0.00 83 1019.2
20260905134615 52 0.0 0.9 0.00 0.06 0.00 83 1019.1
20260905133615 52 0.0 0.0 0.00 0.06 0.00 83 1019.1
20260905132615 52 0.0 0.9 0.00 0.06 0.00 83 1019.0
20260905131615 52 0.0 0.9 0.00 0.06 0.00 83 1018.9
20260905130658 52 0.0 0.0 0.00 0.06 0.00 83 1019.0
20260905125615 52 158 0.9 0.9 0.00 0.07 0.00 83 1018.8
20260905124635 53 0.0 0.9 0.00 0.07 0.00 83 1018.9
20260905123615 53 158 0.9 1.7 0.00 0.07 0.00 83 1018.8
20260905122615 53 0.0 0.9 0.00 0.08 0.00 83 1018.8
20260905121615 53 158 0.9 0.9 0.00 0.09 0.00 83 1018.8
20260905120615 53 0.0 0.0 0.00 0.10 0.00 83 1018.8
20260905115617 53 158 0.9 1.7 0.00 0.10 0.00 83 1018.8
20260905114637 53 158 0.9 1.7 0.00 0.10 0.00 83 1018.7
20260905113617 53 158 0.9 1.7 0.00 0.10 0.00 83 1018.5
20260905112618 53 158 0.9 0.9 0.00 0.10 0.00 83 1018.6
20260905111617 53 0.0 0.9 0.00 0.10 0.00 83 1018.5
20260905110617 53 0.0 0.0 0.00 0.10 0.00 83 1018.6
20260905105617 53 158 0.9 0.9 0.00 0.10 0.00 83 1018.5
20260905104617 53 158 0.9 1.7 0.00 0.10 0.00 83 1018.7
20260905103638 53 158 1.7 4.3 0.00 0.10 0.00 83 1018.8
20260905102617 53 135 0.9 1.7 0.00 0.10 0.00 83 1018.7
20260905101617 53 135 0.9 1.7 0.00 0.10 0.00 83 1018.6
20260905100617 53 0.0 0.0 0.00 0.10 0.00 83 1018.5
20260905095617 53 0.0 0.0 0.00 0.10 0.00 82 1018.6
20260905094617 53 0.0 0.0 0.00 0.10 0.00 82 1018.8
20260905093617 53 0.0 0.9 0.00 0.10 0.00 82 1018.8
20260905092617 53 135 1.7 2.6 0.00 0.10 0.00 81 1018.7
20260905091637 52 113 1.7 2.6 0.00 0.10 0.00 76 1018.7
20260905090617 53 0.0 0.9 0.00 0.10 0.00 75 1018.6
20260905085617 53 0.0 0.9 0.00 0.10 0.00 75 1018.6
20260905084637 53 113 0.9 1.7 0.00 0.10 0.00 76 1018.6
20260905083617 54 113 0.9 1.7 0.00 0.10 0.00 76 1018.5
20260905082616 54 113 0.9 0.9 0.00 0.10 0.00 76 1018.4
20260905081617 54 0.0 0.0 0.00 0.10 0.00 76 1018.4
20260905080636 55 0.0 0.9 0.00 0.10 0.00 76 1018.4
20260905075617 55 0.0 0.0 0.00 0.10 0.00 76 1018.4
20260905074616 55 113 0.9 0.9 0.00 0.10 0.00 76 1018.4
20260905073637 55 0.0 0.9 0.00 0.10 0.00 75 1018.3
20260905072616 55 113 0.9 0.9 0.00 0.10 0.00 75 1018.3
20260905065756 55 0.0 0.9 0.00 0.10 0.10 76 1018.1
20260905064616 55 0.0 0.0 0.00 0.10 0.10 73 1018.1
20260905063615 55 0.0 0.0 0.00 0.10 0.10 73 1018.1
20260905062636 54 0.0 0.9 0.00 0.10 0.10 71 1017.8
20260905061615 54 0.0 0.0 0.00 0.10 0.10 70 1017.8
20260905060615 54 0.0 0.0 0.00 0.10 0.10 70 1017.8
20260905055615 55 0.0 0.9 0.00 0.10 0.10 69 1017.7
20260905054615 55 113 0.9 0.9 0.00 0.10 0.10 69 1017.7
20260905053617 55 113 0.9 1.7 0.00 0.10 0.10 69 1017.7
20260905052617 55 0.0 0.0 0.00 0.10 0.10 69 1017.6
20260905051617 56 135 0.9 1.7 0.00 0.10 0.10 68 1017.5
20260905050617 56 0.0 0.9 0.00 0.10 0.10 67 1017.5
20260905045617 56 158 0.9 0.9 0.00 0.10 0.10 67 1017.4
20260905044637 56 158 0.9 2.6 0.00 0.10 0.10 67 1017.4
20260905043617 57 158 0.9 2.6 0.00 0.10 0.10 65 1017.4
20260905042619 56 158 0.9 0.9 0.00 0.10 0.10 66 1017.3
20260905041619 56 158 0.9 2.6 0.00 0.10 0.10 68 1017.3
20260905040617 56 158 0.9 2.6 0.00 0.10 0.10 68 1017.2
20260905035617 56 158 0.9 0.9 0.00 0.10 0.10 67 1017.1
20260905034636 56 158 2.6 3.5 0.00 0.10 0.10 67 1016.9
20260905033617 56 158 1.7 3.5 0.00 0.10 0.10 66 1016.8
20260905032617 56 158 1.7 1.7 0.00 0.10 0.10 65 1016.7
20260905031617 56 113 0.9 1.7 0.00 0.10 0.10 65 1016.7
20260905030617 57 113 0.9 1.7 0.00 0.10 0.10 64 1016.7
20260905025617 57 113 0.9 1.7 0.00 0.10 0.10 65 1016.6
20260905024619 58 0.0 0.9 0.00 0.10 0.10 64 1016.7
20260905023617 58 113 0.9 0.9 0.00 0.10 0.10 63 1016.7
20260905022617 59 113 0.9 1.7 0.00 0.10 0.10 63 1016.7
20260905021616 60 0.0 0.9 0.00 0.10 0.10 62 1016.8
20260905020617 60 0.0 0.0 0.00 0.10 0.10 61 1016.7
20260905015617 61 0.0 0.9 0.00 0.10 0.10 60 1016.5
20260905014617 61 0.0 0.0 0.00 0.10 0.10 58 1016.4
20260905013616 62 0.0 0.0 0.00 0.10 0.10 58 1016.4
20260905012617 63 0.0 1.7 0.00 0.10 0.10 57 1016.3
20260905011616 62 135 0.9 1.7 0.00 0.10 0.10 57 1016.2
20260905010616 62 113 1.7 2.6 0.00 0.10 0.10 59 1016.1
20260905005617 61 158 0.9 1.7 0.00 0.10 0.10 59 1016.1
20260905004617 61 113 1.7 2.6 0.00 0.10 0.10 61 1016.1
20260905003616 60 113 1.7 2.6 0.00 0.10 0.10 66 1016.1
20260905002617 60 158 2.6 3.5 0.00 0.10 0.10 66 1016.1
20260905001617 60 0.0 0.9 0.00 0.10 0.10 68 1016.0
20260905000617 59 113 1.7 2.6 0.00 0.10 0.10 68 1015.9
20260904235616 59 0.0 1.7 0.01 0.10 0.10 68 1015.9
20260904234617 58 90 0.9 1.7 0.01 0.10 0.10 70 1015.9
20260904233616 58 0.0 0.9 0.02 0.11 0.10 70 1015.9
20260904232616 58 158 0.9 1.7 0.02 0.12 0.10 71 1015.9
20260904231616 58 0.0 0.9 0.03 0.13 0.10 72 1015.9
20260904230617 58 0.0 0.0 0.03 0.13 0.10 72 1015.9
20260904225616 57 0.0 0.9 0.03 0.12 0.09 69 1015.9
20260904224616 57 158 1.7 2.6 0.04 0.12 0.09 66 1015.9
20260904223616 58 158 1.7 3.5 0.03 0.11 0.08 65 1015.9
20260904222616 58 158 2.6 4.3 0.03 0.11 0.08 64 1016.0
20260904221616 59 180 1.7 2.6 0.02 0.10 0.07 64 1015.8
20260904220616 60 203 2.6 4.3 0.02 0.10 0.07 61 1015.7
20260904215616 63 135 3.5 7.8 0.01 0.09 0.06 56 1015.7
20260904214616 68 180 3.5 6.1 0.00 0.08 0.05 43 1015.4
20260904213656 69 225 0.9 1.7 0.00 0.08 0.05 37 1015.1
20260904212636 70 158 0.9 1.7 0.00 0.08 0.05 37 1014.9
20260904211616 71 225 1.7 2.6 0.00 0.08 0.05 38 1014.8
20260904210616 69 270 2.6 4.3 0.00 0.08 0.05 43 1014.7
20260904205616 68 248 4.3 6.1 0.00 0.08 0.05 43 1014.7
20260904204616 68 225 1.7 2.6 0.00 0.08 0.05 41 1014.7
20260904203616 69 293 2.6 3.5 0.00 0.08 0.05 40 1014.6
20260904202616 70 293 3.5 4.3 0.00 0.08 0.05 41 1014.7
20260904201616 68 338 2.6 3.5 0.00 0.08 0.05 44 1014.8
20260904200616 68 338 2.6 4.3 0.00 0.08 0.05 44 1014.9
20260904195616 69 0 0.9 1.7 0.00 0.08 0.05 43 1015.0
20260904194616 69 293 2.6 3.5 0.00 0.08 0.05 44 1015.1
20260904193616 68 338 2.6 3.5 0.00 0.08 0.05 51 1015.1
20260904192636 66 270 0.9 2.6 0.00 0.08 0.05 48 1015.1
20260904191616 67 315 1.7 2.6 0.00 0.08 0.05 49 1015.3
20260904190616 67 338 0.9 1.7 0.00 0.08 0.05 55 1015.5
20260904185616 67 315 0.9 1.7 0.00 0.10 0.05 55 1015.4